Weather History for Shaw AFB, SC

Change the Weather History Date:

Thursday, February 20, 2014

  Actual Average Record
Temperature  
Mean Temperature 67 °F -  
Max Temperature 81 °F 58 °F 81 °F (2014)
Min Temperature 53 °F 36 °F 28 °F (2009)
Cooling Degree Days 2    
Growing Degree Days 17 (Base 50)    
Moisture  
Dew Point 56 °F    
Average Humidity 70    
Maximum Humidity 91    
Minimum Humidity 37    
Precipitation  
Precipitation 0.00 in - - ()
Sea Level Pressure  
Sea Level Pressure 30.08 in    
Wind  
Wind Speed 6 mph (South)    
Max Wind Speed 20 mph    
Max Gust Speed 23 mph    
Visibility 10 miles    
Events      
Averages and records for this station are not official NWS values.
T = Trace of Precipitation, MM = Missing Value Source: NWS Daily Summary

Daily Weather History Graph

Daily Weather History Graph

Search for Another Location

Airport:

Trip Planner

Search our weather history database for the weather conditions in past years. The results will help you decide how hot, cold, wet, or windy it might be!

Date:

Astronomy

Feb. 20, 2014 Rise Set
Actual Time 7:01 AM EST 6:10 PM EST
Civil Twilight 6:35 AM EST 6:35 PM EST
Nautical Twilight 6:06 AM EST 7:05 PM EST
Astronomical Twilight 5:37 AM EST 7:34 PM EST
Moon 11:45 PM EST (2/20) 9:59 AM EST (2/20)
Length of Visible Light 12h 00m
Length of Day
11h 09m
Waning Gibbous, 71% of the Moon is Illuminated
Feb 20
Waning Gibbous
Feb 22
Last Quarter
Mar 1
New
Mar 8
First Quarter
Mar 16
Full

Hourly Weather History & Observations

Time (EST) Temp. Heat Index Dew Point Humidity Pressure Visibility Wind Dir Wind Speed Gust Speed Precip Events Conditions
12:58 AM 58.5 °F - 52.2 °F 80% 30.08 in 10.0 mi South 3.5 mph - N/A   Overcast
1:58 AM 57.6 °F - 52.7 °F 84% 30.09 in 10.0 mi Calm Calm - N/A   Mostly Cloudy
2:58 AM 55.4 °F - 52.2 °F 89% 30.09 in 10.0 mi Calm Calm - N/A   Mostly Cloudy
3:58 AM 55.0 °F - 52.0 °F 89% 30.10 in 10.0 mi West 1.2 mph - N/A   Partly Cloudy
4:58 AM 55.8 °F - 51.4 °F 85% 30.12 in 10.0 mi Calm Calm - N/A   Mostly Cloudy
5:58 AM 54.1 °F - 50.5 °F 88% 30.12 in 10.0 mi Calm Calm - N/A   Partly Cloudy
6:58 AM 53.4 °F - 50.9 °F 91% 30.14 in 10.0 mi Calm Calm - N/A   Clear
7:58 AM 53.8 °F - 50.9 °F 90% 30.14 in 10.0 mi Calm Calm - N/A   Overcast
8:58 AM 59.4 °F - 53.6 °F 81% 30.14 in 10.0 mi SSE 2.3 mph - N/A   Mostly Cloudy
9:58 AM 66.2 °F - 56.3 °F 70% 30.14 in 10.0 mi South 4.6 mph - N/A   Overcast
10:58 AM 72.3 °F - 55.4 °F 55% 30.13 in 10.0 mi SSW 12.7 mph - N/A   Clear
11:58 AM 76.8 °F - 54.7 °F 46% 30.12 in 10.0 mi South 18.4 mph - N/A   Scattered Clouds
12:58 PM 77.2 °F - 56.5 °F 49% 30.09 in 10.0 mi South 15.0 mph 23.0 mph N/A   Clear
1:58 PM 80.2 °F 80.2 °F 54.9 °F 41% 30.05 in 10.0 mi South 19.6 mph - N/A   Partly Cloudy
2:58 PM 81.9 °F 81.2 °F 54.7 °F 39% 30.04 in 10.0 mi SSW 16.1 mph - N/A   Clear
3:58 PM 81.9 °F 81.0 °F 53.1 °F 37% 30.03 in 10.0 mi SSW 18.4 mph - N/A   Clear
4:58 PM 81.0 °F 80.6 °F 54.7 °F 40% 30.03 in 10.0 mi South 11.5 mph - N/A   Clear
5:58 PM 76.5 °F - 54.5 °F 46% 30.04 in 10.0 mi South 15.0 mph - N/A   Clear
6:58 PM 72.7 °F - 54.5 °F 53% 30.04 in 10.0 mi South 9.2 mph - N/A   Clear
7:58 PM 70.2 °F - 59.2 °F 68% 30.04 in 10.0 mi South 12.7 mph 18.4 mph N/A   Clear
8:58 PM 68.5 °F - 61.5 °F 78% 30.04 in 10.0 mi South 12.7 mph 20.7 mph N/A   Clear
9:28 PM 68.0 °F - 62.6 °F 83% 30.04 in 10.0 mi South 10.4 mph 18.4 mph N/A   Mostly Cloudy
9:58 PM 68.0 °F - 62.4 °F 82% 30.04 in 10.0 mi South 13.8 mph - N/A   Overcast
10:33 PM 66.2 °F - 62.6 °F 88% 30.05 in 10.0 mi South 9.2 mph - N/A   Mostly Cloudy
10:58 PM 66.0 °F - 62.4 °F 88% 30.04 in 10.0 mi South 10.4 mph - N/A   Overcast
11:58 PM 66.6 °F - 63.0 °F 88% 30.01 in 10.0 mi South 12.7 mph - N/A   Overcast